International Falls, MN

11:05 AM CST on November 23, 2017 (GMT -0600)
Falls International

Weather History for KINL - December, 2011

Change the Weather History Date:

Monday, December 19, 2011

  Actual Average Record
Temperature  
Mean Temperature 24 °F 8 °F  
Max Temperature 29 °F 18 °F 42 °F (1923)
Min Temperature 19 °F -1 °F -41 °F (1955)
Degree Days  
Heating Degree Days 41 57  
Month to date heating degree days 906 1009  
Since 1 July heating degree days 3026 3470  
Cooling Degree Days 0 0  
Month to date cooling degree days 0 0  
Year to date cooling degree days 207 192  
Moisture  
Dew Point 18 °F    
Average Humidity 87    
Maximum Humidity 96    
Minimum Humidity 77    
Precipitation  
Precipitation T in 0.03 in 0.27 in (1978)
Month to date precipitation 0.10 0.51  
Year to date precipitation 19.32 23.92  
Snow  
Snow 0.10 in 0.50 in 5.90 in (1990)
Month to date snowfall 2.5 9.1  
Since 1 July snowfall 14.8 25.1  
Snow Depth 2.00 in    
Sea Level Pressure  
Sea Level Pressure 30.10 in    
Wind  
Wind Speed 9 mph (WNW)    
Max Wind Speed 20 mph    
Max Gust Speed 24 mph    
Visibility 10 miles    
Events      
T = Trace of Precipitation, MM = Missing Value Source: NWS Daily Summary

Daily Weather History Graph

Daily Weather History Graph

Search for Another Location

Airport or City:

Trip Planner

Search our weather history database for the weather conditions in past years. The results will help you decide how hot, cold, wet, or windy it might be!

Date:

Astronomy

Dec. 19, 2011 Rise Set
Actual Time 8:01 AM CST 4:19 PM CST
Civil Twilight 7:24 AM CST 4:56 PM CST
Nautical Twilight 6:44 AM CST 5:36 PM CST
Astronomical Twilight 6:06 AM CST 6:14 PM CST
Moon 1:54 AM CST (12/19) 12:34 PM CST (12/19)
Length of Visible Light 9h 31m
Length of Day
8h 17m
Waning Crescent, 31% of the Moon is Illuminated
Dec 19
Waning Crescent
Dec 24
New
Jan 1
First Quarter
Jan 9
Full
Jan 16
Last Quarter

Hourly Weather History & Observations

Time (CST) Temp. Windchill Dew Point Humidity Pressure Visibility Wind Dir Wind Speed Gust Speed Precip Events Conditions
12:55 AM 28.0 °F 17.0 °F 23.0 °F 81% 29.84 in 10.0 mi NW 13.8 mph 24.2 mph N/A   Overcast
1:13 AM 26.6 °F 13.4 °F 21.2 °F 80% 29.80 in 10.0 mi NW 18.4 mph 24.2 mph N/A   Overcast
1:31 AM 26.6 °F 15.7 °F 21.2 °F 80% 29.81 in 10.0 mi NW 12.7 mph 23.0 mph N/A   Overcast
1:55 AM 27.0 °F 16.7 °F 21.9 °F 81% 29.87 in 10.0 mi NW 11.5 mph - N/A   Overcast
2:55 AM 26.1 °F 15.0 °F 21.0 °F 81% 29.92 in 10.0 mi NW 12.7 mph 20.7 mph N/A   Overcast
3:26 AM 24.8 °F 15.3 °F 21.2 °F 86% 29.89 in 8.0 mi WNW 9.2 mph - N/A   Overcast
3:55 AM 24.1 °F 12.0 °F 21.0 °F 88% 29.95 in 9.0 mi WNW 13.8 mph - N/A   Overcast
4:55 AM 23.0 °F 13.1 °F 21.0 °F 92% 29.98 in 10.0 mi WNW 9.2 mph - N/A   Overcast
5:55 AM 23.0 °F 14.7 °F 21.0 °F 92% 30.02 in 10.0 mi NW 6.9 mph - N/A   Overcast
6:26 AM 23.0 °F 10.6 °F 19.4 °F 86% 29.99 in 10.0 mi NW 13.8 mph - N/A   Overcast
6:55 AM 23.0 °F 13.9 °F 19.9 °F 88% 30.07 in 10.0 mi NW 8.1 mph - N/A   Overcast
7:48 AM 21.2 °F 8.9 °F 19.4 °F 93% 30.04 in 10.0 mi WNW 12.7 mph - N/A   Overcast
7:55 AM 21.9 °F 11.7 °F 19.0 °F 89% 30.10 in 10.0 mi WNW 9.2 mph - N/A   Overcast
8:24 AM 21.2 °F 8.9 °F 17.6 °F 86% 30.06 in 10.0 mi NNW 12.7 mph - N/A   Overcast
8:55 AM 21.9 °F 13.4 °F 18.0 °F 85% 30.14 in 10.0 mi NW 6.9 mph - N/A   Overcast
9:09 AM 21.2 °F 12.6 °F 19.4 °F 93% 30.09 in 10.0 mi WNW 6.9 mph - N/A   Overcast
9:22 AM 21.2 °F 13.6 °F 19.4 °F 93% 30.10 in 10.0 mi NW 5.8 mph - N/A   Overcast
9:55 AM 21.9 °F 11.0 °F 17.1 °F 82% 30.18 in 10.0 mi NNW 10.4 mph - N/A   Overcast
10:55 AM 21.0 °F 10.6 °F 16.0 °F 81% 30.21 in 10.0 mi NW 9.2 mph - N/A   Overcast
11:55 AM 19.9 °F 12.1 °F 16.0 °F 85% 30.23 in 10.0 mi WNW 5.8 mph - N/A   Overcast
12:55 PM 19.9 °F 9.3 °F 15.1 °F 81% 30.24 in 10.0 mi NNW 9.2 mph - N/A   Overcast
1:55 PM 21.0 °F 12.4 °F 16.0 °F 81% 30.25 in 10.0 mi NW 6.9 mph - N/A   Overcast
2:55 PM 19.9 °F 10.1 °F 14.0 °F 78% 30.27 in 10.0 mi WNW 8.1 mph - N/A   Overcast
3:55 PM 19.9 °F 9.3 °F 14.0 °F 78% 30.29 in 10.0 mi WNW 9.2 mph - N/A   Overcast
4:55 PM 19.9 °F 13.4 °F 14.0 °F 78% 30.26 in 10.0 mi West 4.6 mph - N/A   Overcast
5:55 PM 19.9 °F 12.1 °F 15.1 °F 81% 30.27 in 10.0 mi West 5.8 mph - N/A   Overcast
6:55 PM 19.0 °F 10.0 °F 15.1 °F 85% 30.29 in 10.0 mi West 6.9 mph - N/A   Overcast
7:55 PM 19.9 °F 9.3 °F 15.1 °F 81% 30.25 in 10.0 mi WSW 9.2 mph - N/A   Overcast
8:55 PM 19.9 °F 10.1 °F 15.1 °F 81% 30.24 in 10.0 mi SW 8.1 mph - N/A   Overcast
9:55 PM 19.9 °F 9.3 °F 15.1 °F 81% 30.23 in 10.0 mi WSW 9.2 mph 16.1 mph N/A   Overcast
10:55 PM 19.9 °F 10.1 °F 15.1 °F 81% 30.21 in 10.0 mi SW 8.1 mph - N/A   Overcast
11:55 PM 21.0 °F 11.4 °F 16.0 °F 81% 30.21 in 10.0 mi SW 8.1 mph - N/A   Overcast